DW1389 Weather Reports


Display with metric or nautical units.
time (UTC)temp
F
wind
direction
speed
MPH
gust
MPH
rain 1hr
in
rain 24hr
in
rain mn
in
humidity
%
barometer
mb
20260510102102 71 220 2.0 4.0 0.00 0.03 0.00 87 1010.5
20260510101602 71 201 2.0 5.0 0.00 0.03 0.00 87 1010.8
20260510101102 71 258 2.0 8.0 0.00 0.03 0.00 87 1010.5
20260510100601 71 237 3.0 8.0 0.00 0.03 0.00 87 1010.4
20260510100101 71 238 2.0 6.0 0.00 0.03 0.00 87 1010.2
20260510095838 71 203 2.0 7.0 0.00 0.03 0.00 87 1010.2
20260510095346 71 292 2.0 7.0 0.00 0.03 0.00 87 1010.1
20260510094608 71 171 2.0 4.0 0.00 0.03 0.00 87 1010.1
20260510094602 71 203 2.0 4.0 0.00 0.03 0.00 87 1010.1
20260510093602 71 250 2.0 4.0 0.00 0.03 0.00 87 1010.1
20260510093101 71 162 2.0 7.0 0.00 0.03 0.00 86 1010.2
20260510092602 71 304 2.0 7.0 0.00 0.03 0.00 86 1010.2
20260510092103 71 134 2.0 6.0 0.00 0.03 0.00 87 1010.2
20260510091602 71 313 2.0 4.0 0.00 0.03 0.00 87 1010.1
20260510091104 71 191 2.0 4.0 0.00 0.03 0.00 87 1010.1
20260510090834 71 259 2.0 4.0 0.00 0.03 0.00 87 1010.1
20260510085602 71 274 2.0 3.0 0.00 0.03 0.00 87 1010.1
20260510085103 71 294 2.0 4.0 0.00 0.03 0.00 87 1010.2
20260510084602 71 179 2.0 4.0 0.00 0.03 0.00 87 1010.2
20260510084102 71 281 2.0 5.0 0.00 0.03 0.00 87 1010.3
20260510083822 71 241 2.0 5.0 0.00 0.03 0.00 86 1010.3
20260510083322 71 299 2.0 4.0 0.00 0.03 0.00 86 1010.4
20260510083053 71 2 2.0 4.0 0.00 0.03 0.00 86 1010.4
20260510082058 71 192 2.0 4.0 0.00 0.03 0.00 86 1010.4
20260510081557 71 263 1.0 3.0 0.00 0.03 0.00 86 1010.4
20260510081326 71 158 2.0 5.0 0.00 0.03 0.00 86 1010.4
20260510080820 71 238 2.0 5.0 0.00 0.03 0.00 86 1010.4
20260510080043 71 274 2.0 5.0 0.00 0.03 0.00 86 1010.5
20260510075543 71 241 2.0 5.0 0.00 0.03 0.00 86 1010.5
20260510075043 71 257 2.0 3.0 0.00 0.03 0.00 86 1010.5
20260510074543 71 238 2.0 4.0 0.00 0.03 0.00 86 1010.7
20260510074043 71 104 2.0 5.0 0.00 0.03 0.00 85 1010.8
20260510073543 72 181 2.0 5.0 0.00 0.03 0.00 85 1010.7
20260510073043 72 157 1.0 5.0 0.00 0.03 0.00 84 1010.8
20260510072531 72 183 1.0 3.0 0.00 0.03 0.00 83 1010.7
20260510072029 72 106 2.0 4.0 0.00 0.03 0.00 83 1010.5
20260510071755 72 194 2.0 4.0 0.00 0.03 0.00 83 1010.5
20260510071028 72 227 2.0 4.0 0.00 0.03 0.00 83 1010.5
20260510070528 72 93 2.0 4.0 0.00 0.03 0.00 82 1010.7
20260510070029 73 183 2.0 7.0 0.00 0.03 0.00 82 1010.7
20260510065528 73 187 2.0 7.0 0.00 0.03 0.00 82 1010.5
20260510065028 73 299 2.0 4.0 0.00 0.03 0.00 82 1010.5
20260510064527 73 22 2.0 5.0 0.00 0.03 0.00 81 1010.5
20260510064029 73 60 2.0 5.0 0.00 0.03 0.00 80 1010.5
20260510063527 73 146 2.0 7.0 0.00 0.03 0.00 80 1010.5
20260510063025 73 312 2.0 7.0 0.00 0.03 0.00 79 1010.5
20260510062527 73 158 2.0 4.0 0.00 0.03 0.00 79 1010.5
20260510062027 73 142 2.0 4.0 0.00 0.03 0.00 78 1010.5
20260510061527 73 76 2.0 4.0 0.00 0.03 0.00 78 1010.5
20260510061253 74 118 2.0 4.0 0.00 0.03 0.00 77 1010.5
20260510060528 74 90 2.0 4.0 0.00 0.03 0.00 77 1010.5
20260510060014 74 101 2.0 4.0 0.00 0.03 0.00 77 1010.5
20260510055501 74 254 2.0 5.0 0.00 0.03 0.00 77 1010.4
20260510055001 74 136 2.0 5.0 0.00 0.03 0.00 77 1010.4
20260510054501 74 278 2.0 5.0 0.00 0.03 0.00 78 1010.4
20260510054001 73 113 2.0 5.0 0.00 0.03 0.00 79 1010.4
20260510053501 73 300 1.0 4.0 0.00 0.03 0.00 81 1010.4
20260510053000 73 122 1.0 4.0 0.00 0.03 0.00 82 1010.4
20260510052502 73 152 2.0 4.0 0.00 0.03 0.00 83 1010.4
20260510052002 73 155 1.0 3.0 0.00 0.03 0.00 85 1010.4
20260510051501 73 279 1.0 4.0 0.00 0.03 0.00 85 1010.4
20260510051224 73 147 1.0 4.0 0.00 0.03 0.00 86 1010.4
20260510050500 73 144 1.0 2.0 0.00 0.03 0.00 86 1010.5
20260510050001 74 89 1.0 2.0 0.00 0.03 0.00 86 1010.4
20260510045501 74 215 1.0 2.0 0.00 0.03 0.03 86 1010.4
20260510045002 74 285 0.0 2.0 0.00 0.03 0.03 86 1010.4
20260510044501 74 0 0.0 2.0 0.00 0.03 0.03 86 1010.4
20260510044000 74 92 0.0 2.0 0.00 0.03 0.03 86 1010.4
20260510043501 74 266 1.0 2.0 0.00 0.03 0.03 86 1010.5
20260510043001 74 4 1.0 2.0 0.00 0.03 0.03 86 1010.5
20260510042727 75 51 1.0 2.0 0.00 0.03 0.03 86 1010.4
20260510042001 75 295 1.0 2.0 0.00 0.03 0.03 85 1010.5
20260510041726 75 129 1.0 2.0 0.00 0.03 0.03 85 1010.4
20260510041223 75 137 1.0 2.0 0.00 0.03 0.03 85 1010.3
20260510040725 75 145 1.0 2.0 0.00 0.03 0.03 85 1010.3
20260510040000 76 174 1.0 3.0 0.00 0.03 0.03 85 1010.3
20260510035501 76 340 1.0 3.0 0.00 0.03 0.03 85 1010.3
20260510035001 76 324 1.0 2.0 0.00 0.03 0.03 85 1010.3
20260510034501 76 29 1.0 2.0 0.00 0.03 0.03 85 1010.2
20260510034001 76 72 0.0 2.0 0.00 0.03 0.03 85 1010.2
20260510033502 76 266 0.0 2.0 0.00 0.03 0.03 84 1010.1
20260510033003 76 307 0.0 2.0 0.00 0.03 0.03 84 1010.1
20260510032502 77 7 0.0 2.0 0.00 0.03 0.03 83 1010.1
20260510032002 77 198 1.0 2.0 0.00 0.03 0.03 83 1010.1
20260510031500 77 0 1.0 2.0 0.00 0.03 0.03 82 1010.0
20260510031001 77 312 1.0 2.0 0.00 0.03 0.03 82 1009.9
20260510030501 78 147 1.0 2.0 0.00 0.03 0.03 81 1009.8
20260510030012 78 0 1.0 2.0 0.00 0.03 0.03 80 1009.7
20260510030005 78 256 1.0 2.0 0.00 0.03 0.03 80 1009.7
20260510025002 78 158 1.0 2.0 0.00 0.03 0.03 80 1009.7
20260510024504 78 300 1.0 2.0 0.00 0.03 0.03 79 1009.6
20260510024005 79 120 1.0 2.0 0.00 0.03 0.03 78 1009.5
20260510023502 79 132 1.0 2.0 0.00 0.03 0.03 78 1009.4
20260510023002 79 81 1.0 2.0 0.00 0.03 0.03 77 1009.3
20260510022501 79 160 1.0 3.0 0.00 0.03 0.03 76 1009.2
20260510022002 80 310 2.0 3.0 0.00 0.03 0.03 75 1009.2
20260510021503 80 46 1.0 3.0 0.00 0.03 0.03 74 1009.1
20260510021002 80 129 1.0 3.0 0.00 0.03 0.03 73 1008.9
20260510020502 80 75 1.0 2.0 0.00 0.03 0.03 72 1008.9
20260510020001 80 313 0.0 2.0 0.00 0.03 0.03 71 1008.8
20260510015502 80 90 0.0 2.0 0.00 0.03 0.03 71 1008.7
20260510015002 80 0 0.0 2.0 0.00 0.03 0.03 70 1008.6
20260510014503 81 0 0.0 2.0 0.00 0.03 0.03 70 1008.6
20260510014002 81 92 1.0 2.0 0.00 0.03 0.03 69 1008.6
20260510013502 82 280 1.0 2.0 0.00 0.03 0.03 68 1008.6
20260510013002 82 102 0.0 2.0 0.00 0.03 0.03 67 1008.5
20260510012726 82 0 0.0 2.0 0.00 0.03 0.03 66 1008.5
20260510012002 83 0 1.0 3.0 0.00 0.03 0.03 66 1008.5
20260510011501 83 97 1.0 4.0 0.00 0.03 0.03 65 1008.4
20260510011001 83 57 1.0 4.0 0.00 0.03 0.03 65 1008.5
20260510010501 83 0 1.0 4.0 0.00 0.03 0.03 65 1008.4
20260510010001 84 20 1.0 4.0 0.00 0.03 0.03 66 1008.4
20260510005501 84 147 1.0 4.0 0.00 0.03 0.03 66 1008.4
20260510005001 84 341 1.0 4.0 0.00 0.03 0.03 66 1008.4
20260510004748 84 0 1.0 4.0 0.00 0.03 0.03 66 1008.3
20260510004001 85 94 1.0 4.0 0.00 0.03 0.03 65 1008.3
20260510003501 85 0 1.0 4.0 0.00 0.03 0.03 65 1008.2
20260510003001 85 100 1.0 5.0 0.00 0.03 0.03 64 1008.2
20260510002501 85 29 1.0 5.0 0.00 0.03 0.03 64 1008.2
20260510002001 86 112 2.0 6.0 0.00 0.03 0.03 63 1008.1
20260510001751 86 84 2.0 6.0 0.00 0.03 0.03 63 1008.1
20260510001001 87 60 1.0 5.0 0.00 0.03 0.03 62 1008.0
20260510000500 87 150 1.0 6.0 0.00 0.03 0.03 60 1008.0
20260510000001 88 182 1.0 6.0 0.00 0.03 0.03 59 1008.0
20260509235501 88 179 1.0 6.0 0.00 0.03 0.03 59 1007.9
20260509235001 88 108 1.0 5.0 0.00 0.03 0.03 58 1007.8
20260509234501 88 0 1.0 5.0 0.00 0.03 0.03 58 1007.8
20260509234001 88 0 1.0 4.0 0.00 0.03 0.03 57 1007.8
20260509233501 89 16 1.0 6.0 0.00 0.03 0.03 58 1007.7
20260509233249 89 252 1.0 6.0 0.00 0.03 0.03 56 1007.7
20260509232749 88 22 2.0 5.0 0.00 0.03 0.03 58 1007.7
20260509232001 88 66 2.0 5.0 0.00 0.03 0.03 58 1007.7
20260509231502 88 167 2.0 5.0 0.00 0.03 0.03 58 1007.6
20260509231002 88 176 2.0 5.0 0.00 0.03 0.03 59 1007.7
20260509230747 89 140 2.0 6.0 0.00 0.03 0.03 59 1007.7
20260509230002 89 138 2.0 6.0 0.00 0.03 0.03 58 1007.7
20260509225502 89 219 2.0 6.0 0.00 0.03 0.03 59 1007.7
20260509225002 89 147 2.0 6.0 0.00 0.03 0.03 58 1007.7
20260509224501 89 153 2.0 6.0 0.00 0.03 0.03 59 1007.8
20260509224002 89 314 2.0 6.0 0.00 0.03 0.03 59 1007.7
20260509223502 88 142 2.0 5.0 0.00 0.03 0.03 59 1007.7
20260509223002 88 76 2.0 5.0 0.00 0.03 0.03 59 1007.6
20260509222502 88 213 2.0 5.0 0.00 0.03 0.03 60 1007.7
20260509222002 88 81 2.0 5.0 0.00 0.03 0.03 59 1007.7
20260509221502 89 17 2.0 7.0 0.00 0.03 0.03 60 1007.6
20260509221038 89 91 2.0 6.0 0.00 0.03 0.03 57 1007.7
20260509221027 89 104 2.0 7.0 0.00 0.03 0.03 58 1007.6
20260509220001 89 349 2.0 6.0 0.00 0.03 0.03 54 1007.6
20260509215745 89 0 2.0 6.0 0.00 0.03 0.03 54 1007.7
20260509215002 89 83 2.0 5.0 0.00 0.03 0.03 54 1007.7
20260509214748 89 105 2.0 5.0 0.00 0.03 0.03 56 1007.7
20260509214002 89 31 1.0 5.0 0.00 0.03 0.03 55 1007.7
20260509213502 89 0 1.0 5.0 0.00 0.03 0.03 56 1007.9
20260509213000 90 17 1.0 4.0 0.00 0.03 0.03 55 1007.9
20260509212500 90 46 1.0 4.0 0.00 0.03 0.03 54 1007.9
20260509212003 89 212 1.0 4.0 0.00 0.03 0.03 56 1008.0
20260509211502 88 201 1.0 4.0 0.00 0.03 0.03 56 1008.1
20260509211002 88 37 2.0 6.0 0.00 0.03 0.03 56 1008.2
20260509210502 88 28 2.0 6.0 0.00 0.03 0.03 57 1008.3
20260509210246 88 156 1.0 4.0 0.00 0.03 0.03 56 1008.3
20260509205500 87 320 1.0 5.0 0.00 0.03 0.03 58 1008.4
20260509205002 87 50 1.0 6.0 0.00 0.03 0.03 57 1008.5
20260509204502 87 37 1.0 6.0 0.00 0.03 0.03 56 1008.6
20260509204001 87 164 1.0 4.0 0.00 0.03 0.03 55 1008.7
20260509203501 87 114 2.0 5.0 0.00 0.03 0.03 56 1008.7
20260509203004 86 149 2.0 5.0 0.00 0.03 0.03 56 1008.7
20260509202502 86 0 2.0 4.0 0.00 0.03 0.03 56 1008.8
20260509202002 85 81 2.0 5.0 0.00 0.03 0.03 58 1009.0
20260509201502 84 284 2.0 9.0 0.00 0.03 0.03 59 1009.1
20260509201243 84 152 2.0 9.0 0.00 0.03 0.03 57 1009.3
20260509200501 83 162 2.0 8.0 0.00 0.03 0.03 58 1009.4
20260509200001 84 310 3.0 9.0 0.00 0.03 0.03 58 1009.6
20260509195501 86 226 2.0 9.0 0.00 0.03 0.03 54 1009.8
20260509195000 87 214 2.0 5.0 0.00 0.03 0.03 60 1009.8
20260509194501 87 87 2.0 5.0 0.00 0.03 0.03 60 1009.7
20260509194001 87 53 2.0 5.0 0.00 0.03 0.03 60 1009.5
20260509193500 88 51 2.0 5.0 0.00 0.03 0.03 62 1009.5
20260509193002 88 0 2.0 6.0 0.00 0.03 0.03 60 1009.5
20260509192501 88 65 2.0 6.0 0.00 0.03 0.03 61 1009.4
20260509192002 87 73 2.0 5.0 0.00 0.03 0.03 61 1009.3
20260509191744 87 325 2.0 5.0 0.00 0.03 0.03 63 1009.3
20260509191001 87 131 2.0 8.0 0.00 0.03 0.03 64 1009.3
20260509190741 86 192 2.0 8.0 0.00 0.03 0.03 65 1009.3
20260509190242 86 23 2.0 6.0 0.00 0.03 0.03 67 1009.4
20260509185501 86 66 2.0 7.0 0.00 0.03 0.03 65 1009.5
20260509185001 86 72 2.0 7.0 0.00 0.03 0.03 67 1009.7
20260509184501 86 43 2.0 7.0 0.00 0.03 0.03 67 1009.7
20260509184002 86 259 2.0 6.0 0.00 0.03 0.03 68 1009.8
20260509183502 86 359 2.0 8.0 0.00 0.03 0.03 68 1009.8
20260509183241 86 245 2.0 8.0 0.00 0.03 0.03 68 1009.9
20260509182501 87 29 2.0 8.0 0.00 0.03 0.03 67 1009.9
20260509182001 88 26 1.0 5.0 0.00 0.03 0.03 64 1010.0
20260509181503 88 248 1.0 4.0 0.00 0.03 0.03 66 1010.1
20260509181000 87 0 1.0 4.0 0.00 0.03 0.03 67 1010.1
20260509180501 86 201 2.0 6.0 0.00 0.03 0.03 67 1010.2
20260509180002 86 230 2.0 6.0 0.00 0.03 0.03 68 1010.1
20260509175501 86 259 1.0 5.0 0.00 0.03 0.03 69 1010.2
20260509175002 86 299 1.0 4.0 0.00 0.03 0.03 71 1010.3
20260509174742 85 98 2.0 4.0 0.00 0.03 0.03 70 1010.3
20260509174002 85 280 2.0 4.0 0.00 0.03 0.03 69 1010.3
20260509173501 85 271 1.0 4.0 0.00 0.03 0.03 70 1010.4
20260509173002 85 224 1.0 4.0 0.00 0.03 0.03 72 1010.5
20260509172500 85 232 1.0 4.0 0.00 0.03 0.03 71 1010.5
20260509172001 85 227 1.0 3.0 0.00 0.03 0.03 71 1010.5
20260509171502 85 263 1.0 4.0 0.00 0.03 0.03 70 1010.7
20260509171002 85 58 1.0 5.0 0.00 0.03 0.03 70 1010.7
20260509170502 85 236 2.0 8.0 0.00 0.03 0.03 72 1010.8
20260509170240 84 125 2.0 8.0 0.00 0.03 0.03 74 1010.9
20260509165500 84 188 2.0 6.0 0.00 0.03 0.03 75 1011.0
20260509165001 84 237 1.0 6.0 0.00 0.03 0.03 73 1010.8
20260509164502 85 205 1.0 4.0 0.00 0.03 0.03 71 1010.8
20260509164001 84 65 1.0 5.0 0.00 0.03 0.03 73 1010.8
20260509163501 84 0 2.0 6.0 0.00 0.03 0.03 73 1010.9
20260509163000 83 0 2.0 6.0 0.00 0.03 0.03 76 1011.0
20260509162501 83 230 2.0 6.0 0.00 0.03 0.03 77 1011.1
20260509162001 82 240 3.0 10.0 0.00 0.03 0.03 76 1011.0
20260509161501 82 254 4.0 10.0 0.00 0.03 0.03 79 1011.0
20260509161001 82 218 2.0 7.0 0.00 0.03 0.03 79 1010.9
20260509160501 81 252 2.0 7.0 0.00 0.03 0.03 81 1010.9
20260509160000 80 255 3.0 12.0 0.00 0.03 0.03 81 1010.9
20260509155501 81 256 3.0 12.0 0.00 0.03 0.03 81 1010.9
20260509155244 81 190 3.0 7.0 0.00 0.03 0.03 82 1010.8
20260509154502 80 238 3.0 9.0 0.00 0.03 0.03 82 1010.7
20260509154002 80 290 4.0 9.0 0.00 0.03 0.03 83 1010.4
20260509153502 79 205 4.0 7.0 0.00 0.03 0.03 83 1010.3
20260509153002 79 135 4.0 8.0 0.00 0.03 0.03 84 1010.3
20260509152502 79 219 3.0 8.0 0.00 0.03 0.03 85 1010.4
20260509152001 79 241 3.0 8.0 0.00 0.03 0.03 85 1010.3
20260509151502 78 209 3.0 8.0 0.00 0.03 0.03 86 1010.3
20260509151001 78 254 3.0 8.0 0.00 0.03 0.03 86 1010.2
20260509150502 78 273 3.0 8.0 0.00 0.03 0.03 86 1010.1
20260509150000 79 193 3.0 8.0 0.00 0.03 0.03 85 1010.1
20260509145501 79 222 3.0 8.0 0.00 0.03 0.03 86 1010.1
20260509145000 79 284 2.0 6.0 0.00 0.03 0.03 87 1010.1
20260509144501 79 329 2.0 6.0 0.00 0.03 0.03 86 1010.1
20260509144002 79 344 2.0 7.0 0.00 0.03 0.03 85 1010.0
20260509143501 79 273 3.0 7.0 0.00 0.03 0.03 85 1010.0
20260509143002 79 146 2.0 6.0 0.00 0.03 0.03 85 1009.9
20260509142502 79 292 2.0 7.0 0.00 0.03 0.03 85 1009.7
20260509142001 78 298 3.0 7.0 0.00 0.03 0.03 86 1009.8
20260509141501 78 256 3.0 6.0 0.00 0.03 0.03 86 1009.7
20260509141002 78 152 2.0 5.0 0.00 0.03 0.03 87 1009.6
20260509140748 78 257 1.0 5.0 0.00 0.03 0.03 88 1009.6
20260509140002 77 230 2.0 3.0 0.00 0.03 0.03 90 1009.6
20260509135501 76 231 2.0 3.0 0.00 0.03 0.03 90 1009.5
20260509135003 75 189 2.0 5.0 0.00 0.03 0.03 93 1009.4
20260509134502 74 111 2.0 5.0 0.00 0.03 0.03 96 1009.5
20260509134002 74 286 2.0 4.0 0.00 0.03 0.03 98 1009.6
20260509133502 73 348 2.0 4.0 0.00 0.03 0.03 99 1009.7
20260509133002 73 216 2.0 5.0 0.00 0.03 0.03 99 1009.8
20260509132745 73 307 2.0 5.0 0.00 0.03 0.03 100 1009.7
20260509132232 72 247 2.0 6.0 0.00 0.03 0.03 100 1009.7
20260509131501 72 236 3.0 6.0 0.00 0.03 0.03 100 1009.8
20260509131245 72 253 3.0 5.0 0.00 0.03 0.03 99 1009.9
20260509130505 72 245 2.0 5.0 0.00 0.03 0.03 99 1010.0
20260509130225 72 206 2.0 4.0 0.00 0.03 0.03 99 1010.0
20260509125501 72 202 2.0 3.0 0.00 0.03 0.03 99 1010.0
20260509125228 72 238 2.0 3.0 0.00 0.03 0.03 99 1010.0
20260509124724 72 252 1.0 3.0 0.00 0.03 0.03 99 1009.9
20260509124001 71 253 1.0 2.0 0.00 0.03 0.03 99 1009.9
20260509123501 71 228 0.0 1.0 0.00 0.03 0.03 99 1009.9
20260509123002 71 0 0.0 1.0 0.00 0.03 0.03 99 1010.0
20260509122730 71 0 0.0 1.0 0.00 0.03 0.03 99 1009.9
20260509122002 71 0 0.0 1.0 0.00 0.03 0.03 99 1009.9
20260509121727 71 318 0.0 2.0 0.00 0.03 0.03 99 1009.9
20260509121001 71 0 1.0 2.0 0.00 0.03 0.03 99 1009.9
20260509120500 71 250 1.0 2.0 0.00 0.03 0.03 99 1009.9
20260509120001 71 261 0.0 1.0 0.00 0.03 0.03 99 1009.9
20260509115725 71 257 0.0 1.0 0.00 0.03 0.03 99 1010.0
20260509115002 71 0 0.0 1.0 0.00 0.03 0.03 99 1010.1
20260509114501 71 0 0.0 1.0 0.00 0.03 0.03 99 1010.3
20260509114001 72 198 0.0 1.0 0.00 0.03 0.03 99 1010.7
20260509113501 72 305 0.0 1.0 0.00 0.03 0.03 99 1010.4
20260509113001 72 0 0.0 1.0 0.03 0.03 0.03 99 1010.5
20260509112729 72 325 0.0 1.0 0.03 0.03 0.03 99 1011.0
20260509112002 72 289 0.0 2.0 0.03 0.03 0.03 99 1011.1
20260509111503 72 312 1.0 2.0 0.03 0.03 0.03 99 1011.2
20260509111459 72 218 1.0 2.0 0.03 0.03 0.03 99 1011.4
20260509110501 72 0 0.0 1.0 0.03 0.03 0.03 99 1011.4
20260509110228 72 190 0.0 1.0 0.03 0.03 0.03 99 1011.3
20260509105501 72 149 0.0 1.0 0.03 0.03 0.03 99 1011.3
20260509105001 72 0 0.0 1.0 0.03 0.03 0.03 99 1011.3
20260509104502 72 50 0.0 1.0 0.03 0.03 0.03 99 1011.3
20260509104001 72 325 0.0 1.0 0.03 0.03 0.03 99 1011.2
20260509103501 72 267 0.0 1.0 0.03 0.03 0.02 99 1011.3
20260509103001 72 0 0.0 2.0 0.00 0.00 0.00 99 1011.4
20260509102500 72 0 0.0 2.0 0.00 0.00 0.00 98 1011.3